Location: Cathedral Gorge
(37.8167°N, 114.4167°W)
Time: 09:48:47
(UTC-07:00)

Amateur Radio Satellites - All Passes

Search period start: 18 October 2017 09:18
Search period end: 19 October 2017 09:18
Location: Cathedral Gorge, 37.8167°N, 114.4167°W

Satellite Date Start Highest point End Downlink Frequencies (MHz)
Time Altitude Azimuth
XW-2A 18 Oct 09:19:47 09:21:45 15° 291° (WNW) 09:23:41 145.665 - 145.685
ISS 18 Oct 09:38:13 09:40:16 16° 129° (SE) 09:42:20 437.550
CUBEBUG 2 18 Oct 09:39:20 09:40:58 12° 297° (WNW) 09:42:35 437.445
AO-73 18 Oct 09:42:53 09:46:46 32° 289° (WNW) 09:50:33 145.935
JUGNU 18 Oct 09:44:07 09:46:15 12° 185° (S) 09:48:23 437.505
AAUSAT CUBESAT 2 18 Oct 09:46:07 09:48:36 16° 293° (WNW) 09:51:06 437.432
EO-88 18 Oct 09:46:21 09:48:43 16° 94° (E) 09:51:04 145.990 - 145.960
Max Valier Satellite 18 Oct 09:50:02 09:53:10 26° 96° (E) 09:56:16 145.860
NO-84 18 Oct 09:52:52 09:55:08 15° 26° (NNE) 09:57:17 435.350 FM
DELFI C3 18 Oct 09:59:50 10:03:42 53° 100° (E) 10:07:35 145.870
ZACube-1 18 Oct 10:04:14 10:07:10 18° 293° (WNW) 10:10:02 437.345
UNISAT 6 18 Oct 10:12:11 10:16:36 45° 261° (W) 10:21:06 437.425
SRMSAT 18 Oct 10:15:17 10:16:47 11° 171° (S) 10:18:18 437.500
HO-68 18 Oct 10:21:06 10:22:15 10° 309° (NW) 10:23:23 435.675
PRISM 18 Oct 10:25:16 10:29:17 68° 258° (WSW) 10:33:20 437.425
TIGRISAT 18 Oct 10:27:59 10:32:08 33° 263° (W) 10:36:23 435.000
QB50P2 18 Oct 10:29:01 10:30:35 12° 64° (ENE) 10:32:07 145.880/145.840
PCSat 18 Oct 10:32:21 10:35:27 15° 315° (NW) 10:38:34 145.827
NANOSAT C BR1 18 Oct 10:35:15 10:36:17 11° 64° (ENE) 10:37:20 145.865
LO-87 18 Oct 10:45:20 10:45:43 10° 92° (E) 10:46:06 145.935 - 145.965
nSIGHT-1 18 Oct 10:46:17 10:49:28 74° 321° (NW) 10:52:40 .
DUCHIFAT 1 18 Oct 10:46:23 10:48:18 13° 65° (ENE) 10:50:13 145.980
Oscar 11 18 Oct 10:47:21 10:47:52 10° 297° (WNW) 10:48:24 .
RS-15 18 Oct 10:55:17 11:07:01 71° 245° (WSW) 11:18:05 29.354- 29.394
YUBILEINY 18 Oct 11:00:37 11:08:27 37° 287° (WNW) 11:16:23 435.215
AIST 2D 18 Oct 11:02:57 11:06:27 72° 77° (ENE) 11:09:57 435.315
ISS 18 Oct 11:13:21 11:16:28 45° 324° (NW) 11:19:38 437.550
EO-88 18 Oct 11:19:18 11:22:21 26° 289° (WNW) 11:25:22 145.990 - 145.960
Max Valier Satellite 18 Oct 11:24:21 11:26:46 17° 291° (WNW) 11:29:10 145.860
NO-84 18 Oct 11:29:22 11:33:03 85° 224° (SW) 11:36:23 435.350 FM
DELFI C3 18 Oct 11:37:04 11:37:58 11° 295° (WNW) 11:38:52 145.870
EO-79 18 Oct 11:37:25 11:41:37 65° 76° (ENE) 11:45:52 145.935-145.965
POLYITAN 1 18 Oct 11:41:26 11:45:41 72° 75° (ENE) 11:49:58 437.675
SPROUT 18 Oct 11:58:11 12:00:17 13° 92° (E) 12:02:22 437.525
QB50P2 18 Oct 12:01:38 12:05:49 58° 259° (W) 12:10:03 145.880/145.840
SRMSAT 18 Oct 12:02:25 12:05:04 13° 181° (S) 12:07:42 437.500
NANOSAT C BR1 18 Oct 12:07:13 12:11:25 63° 259° (W) 12:15:39 145.865
BEESAT 2 18 Oct 12:12:27 12:13:53 12° 108° (ESE) 12:15:20 435.950
M-CUBED/EXP-1 PRIME 18 Oct 12:14:38 12:16:35 15° 64° (ENE) 12:18:29 437.505
LO-87 18 Oct 12:15:52 12:19:19 41° 286° (WNW) 12:22:44 145.935 - 145.965
DUCHIFAT 1 18 Oct 12:19:21 12:23:28 51° 260° (W) 12:27:38 145.980
ESTCUBE 1 18 Oct 12:24:19 12:28:45 67° 285° (WNW) 12:33:12 437.505/2401.250
nSIGHT-1 18 Oct 12:24:35 12:26:13 13° 339° (NNW) 12:27:51 .
VELOX 1 18 Oct 12:24:47 12:27:55 19° 94° (E) 12:31:01 145.980
BEESAT 3 18 Oct 12:31:42 12:35:41 77° 118° (ESE) 12:39:43 437.485
BUGSAT 1 18 Oct 12:35:57 12:40:02 57° 74° (ENE) 12:44:10 437.445
Oscar 19 18 Oct 12:37:57 12:42:30 32° 69° (ENE) 12:47:02 437.125/150
Gurwin Techsat 1B 18 Oct 12:51:37 12:56:11 30° 68° (ENE) 13:00:46 435.225
ISS 18 Oct 12:52:37 12:53:37 11° 343° (NNW) 12:54:37 437.550
RS-15 18 Oct 13:12:30 13:17:00 13° 265° (W) 13:21:26 29.354- 29.394
AO-7 18 Oct 13:17:42 13:22:34 17° 51° (NE) 13:27:26 .
50 SAT 18 Oct 13:30:46 13:33:34 25° 97° (E) 13:36:21 437.505
SPROUT 18 Oct 13:32:16 13:36:24 46° 287° (WNW) 13:40:30 437.525
DX 1 18 Oct 13:37:36 13:41:22 28° 97° (E) 13:45:07 434.975-435.025
BEESAT 2 18 Oct 13:47:11 13:51:06 53° 303° (WNW) 13:55:04 435.950
M-CUBED/EXP-1 PRIME 18 Oct 13:47:50 13:50:50 27° 257° (WSW) 13:53:43 437.505
AO-85 18 Oct 13:54:50 13:58:41 67° 302° (WNW) 14:02:37 145.980
VELOX 1 18 Oct 14:00:22 14:04:25 36° 289° (WNW) 14:08:28 145.980
UKube-1 18 Oct 14:06:04 14:10:05 36° 98° (E) 14:14:03 .
BEESAT 3 18 Oct 14:12:26 14:13:45 11° 317° (NW) 14:15:03 437.485
BUGSAT 1 18 Oct 14:15:06 14:15:43 10° 269° (W) 14:16:20 437.445
Oscar 19 18 Oct 14:17:23 14:21:46 28° 264° (W) 14:26:10 437.125/150
Gurwin Techsat 1B 18 Oct 14:31:22 14:36:02 31° 263° (W) 14:40:43 435.225
BEESAT 18 Oct 14:41:17 14:41:58 10° 90° (E) 14:42:39 436.000
ITAMSAT 1 18 Oct 14:45:00 14:49:33 32° 68° (ENE) 14:54:08 435.822/435.867
50 SAT 18 Oct 15:03:50 15:05:39 14° 292° (WNW) 15:07:28 437.505
AO-7 18 Oct 15:05:46 15:14:03 80° 70° (ENE) 15:22:22 .
DX 1 18 Oct 15:13:55 15:17:24 24° 292° (WNW) 15:20:52 434.975-435.025
SO-50 18 Oct 15:25:04 15:28:53 25° 50° (NE) 15:32:45 436.795
nSIGHT-1 18 Oct 15:39:50 15:41:14 12° 20° (NNE) 15:42:38 .
UKube-1 18 Oct 15:42:51 15:45:48 18° 294° (WNW) 15:48:44 .
MOZHAYETS 4 18 Oct 15:49:05 15:53:40 71° 101° (ESE) 15:58:12
CUBESAT XI-V 18 Oct 15:55:53 15:58:50 17° 93° (E) 16:01:47 437.345
ITUPSAT 1 18 Oct 15:58:26 16:03:15 74° 103° (ESE) 16:08:00 437.325
ISS 18 Oct 16:06:52 16:09:01 16° 24° (NNE) 16:11:10 437.550
BEESAT 18 Oct 16:15:25 16:20:12 72° 285° (WNW) 16:24:56 436.000
DOVE 4 18 Oct 16:23:39 16:27:12 28° 70° (ENE) 16:30:53 437.250
ITAMSAT 1 18 Oct 16:24:34 16:28:58 28° 264° (W) 16:33:24 435.822/435.867
CUTE-I 18 Oct 16:41:47 16:44:05 13° 61° (ENE) 16:46:24 437.470
AO-7 18 Oct 17:02:00 17:07:33 19° 267° (W) 17:13:09 .
SO-50 18 Oct 17:05:10 17:09:24 36° 246° (WSW) 17:13:40 436.795
HO-68 18 Oct 17:11:22 17:15:13 16° 55° (NE) 17:19:05 435.675
nSIGHT-1 18 Oct 17:14:52 17:18:03 61° 37° (NE) 17:21:13 .
XW-2F 18 Oct 17:24:43 17:27:57 28° 72° (ENE) 17:31:12 145.980 - 146.000
LilacSat-2 18 Oct 17:25:20 17:28:47 33° 72° (ENE) 17:32:14 437.200
KAITUO 1B 18 Oct 17:26:46 17:29:43 22° 71° (ENE) 17:32:41 145.475/437.950
MOZHAYETS 4 18 Oct 17:28:58 17:30:11 11° 297° (WNW) 17:31:24
KKS-1 18 Oct 17:31:01 17:35:23 50° 100° (E) 17:39:45 437.445
CUBESAT XI-V 18 Oct 17:32:02 17:36:22 42° 288° (WNW) 17:40:41 437.345
XW-2D 18 Oct 17:35:03 17:38:39 42° 74° (ENE) 17:42:15 145.860 - 145.880
PCSat 18 Oct 17:35:44 17:40:56 45° 57° (ENE) 17:46:06 145.827
ITUPSAT 1 18 Oct 17:38:48 17:40:24 12° 298° (WNW) 17:41:59 437.325
ISS 18 Oct 17:42:34 17:45:50 78° 221° (SW) 17:49:06 437.550
NUDT-PHONESAT 18 Oct 17:43:50 17:47:14 35° 73° (ENE) 17:50:38 437.300
XW-2B 18 Oct 17:48:16 17:52:00 60° 76° (ENE) 17:55:46 145.730 - 145.750
DOVE 4 18 Oct 18:01:51 18:04:56 20° 266° (W) 18:08:05 437.250
STARS 18 Oct 18:09:30 18:13:50 53° 100° (E) 18:18:10 437.465
XW-2C 18 Oct 18:11:21 18:15:08 63° 259° (W) 18:18:55 145.795 - 145.815
CUTE 1.7 + AOD 2 18 Oct 18:16:58 18:20:30 26° 70° (ENE) 18:24:02 437.475
CUTE-I 18 Oct 18:18:06 18:23:24 79° 256° (WSW) 18:28:45 437.470
SEEDS 18 Oct 18:28:22 18:31:33 21° 69° (ENE) 18:34:44 437.485
nSIGHT-1 18 Oct 18:52:51 18:53:57 11° 232° (SW) 18:55:02 .
HO-68 18 Oct 18:54:42 19:01:52 84° 73° (ENE) 19:09:05 435.675
CUBEBUG 2 18 Oct 18:55:58 19:00:21 44° 73° (ENE) 19:04:51 437.445
AAUSAT CUBESAT 2 18 Oct 18:58:25 19:01:25 20° 69° (ENE) 19:04:26 437.432
XW-2F 18 Oct 18:59:32 19:02:03 17° 266° (W) 19:04:35 145.980 - 146.000
KAITUO 1B 18 Oct 19:00:46 19:03:36 20° 265° (W) 19:06:27 145.475/437.950
LilacSat-2 18 Oct 19:00:56 19:03:07 15° 267° (W) 19:05:18 437.200
AO-73 18 Oct 19:01:40 19:04:01 14° 65° (ENE) 19:06:21 145.935
KKS-1 18 Oct 19:09:02 19:11:29 15° 295° (WNW) 19:13:56 437.445
XW-2D 18 Oct 19:11:45 19:13:00 11° 268° (W) 19:14:14 145.860 - 145.880
STRAND 1 18 Oct 19:12:57 19:16:58 23° 95° (E) 19:20:58 437.568
YUBILEINY 18 Oct 19:16:43 19:22:43 20° 66° (ENE) 19:28:40 435.215
NUDT-PHONESAT 18 Oct 19:19:27 19:21:11 13° 267° (W) 19:22:56 437.300
PCSat 18 Oct 19:19:51 19:23:59 23° 254° (WSW) 19:28:07 145.827
ZACube-1 18 Oct 19:20:54 19:24:38 25° 69° (ENE) 19:28:23 437.345
UWE-3 18 Oct 19:37:55 19:42:31 73° 76° (ENE) 19:47:11 435.000/436.395/437.385
O/OREOS (USA 219) 18 Oct 19:41:59 19:43:28 11° 97° (E) 19:44:57 437.305
XW-2A 18 Oct 19:47:18 19:50:42 63° 260° (W) 19:54:06 145.665 - 145.685
STARS 18 Oct 19:47:28 19:49:42 14° 296° (WNW) 19:51:55 437.465
CUTE 1.7 + AOD 2 18 Oct 19:52:54 19:56:15 23° 265° (W) 19:59:37 437.475
FO-29 18 Oct 19:56:18 19:59:50 14° 90° (E) 20:03:28 435.910
Oscar 11 18 Oct 20:00:48 20:04:50 39° 73° (ENE) 20:08:53 .
SEEDS 18 Oct 20:03:28 20:07:03 27° 264° (W) 20:10:39 437.485
Max Valier Satellite 18 Oct 20:29:44 20:30:02 10° 66° (ENE) 20:30:21 145.860
AAUSAT CUBESAT 2 18 Oct 20:33:06 20:36:40 28° 264° (W) 20:40:14 437.432
CUBEBUG 2 18 Oct 20:34:11 20:37:09 17° 268° (W) 20:40:10 437.445
AO-73 18 Oct 20:35:16 20:39:43 55° 260° (W) 20:44:14 145.935
DELFI C3 18 Oct 20:43:38 20:46:44 23° 70° (ENE) 20:49:50 145.870
HO-68 18 Oct 20:46:24 20:50:19 15° 269° (W) 20:54:17 435.675
BEESAT 3 18 Oct 20:50:23 20:53:41 24° 51° (NE) 20:56:56 437.485
STRAND 1 18 Oct 20:51:27 20:56:13 39° 290° (WNW) 21:00:58 437.568
ZACube-1 18 Oct 20:56:48 21:00:45 29° 264° (W) 21:04:44 437.345
YUBILEINY 18 Oct 21:11:42 21:20:32 83° 266° (W) 21:29:21 435.215
O/OREOS (USA 219) 18 Oct 21:17:47 21:22:15 59° 292° (WNW) 21:26:49 437.305
Oscar 11 18 Oct 21:38:26 21:41:05 16° 267° (W) 21:43:47 .
FO-29 18 Oct 21:38:27 21:45:23 87° 107° (ESE) 21:53:02 435.910
EO-88 18 Oct 21:54:02 21:57:40 87° 251° (WSW) 22:01:21 145.990 - 145.960
Max Valier Satellite 18 Oct 21:59:45 22:03:23 49° 261° (W) 22:07:01 145.860
UNISAT 6 18 Oct 22:05:34 22:09:59 43° 98° (E) 22:14:17 437.425
BEESAT 2 18 Oct 22:06:16 22:10:11 47° 56° (NE) 22:14:02 435.950
PRISM 18 Oct 22:08:59 22:11:48 18° 94° (E) 22:14:37 437.425
DELFI C3 18 Oct 22:18:18 22:21:22 22° 265° (W) 22:24:27 145.870
TIGRISAT 18 Oct 22:20:47 22:25:22 59° 100° (E) 22:29:48 435.000
AO-85 18 Oct 22:26:33 22:31:05 59° 57° (ENE) 22:35:58 145.980
BEESAT 3 18 Oct 22:27:53 22:31:09 25° 248° (WSW) 22:34:22 437.485
LO-87 18 Oct 22:49:24 22:52:53 51° 75° (ENE) 22:56:24 145.935 - 145.965
RS-15 18 Oct 23:06:24 23:15:00 23° 100° (E) 23:23:36 29.354- 29.394
YUBILEINY 18 Oct 23:11:50 23:15:51 14° 284° (WNW) 23:19:54 435.215
VELOX 1 18 Oct 23:21:13 23:23:28 14° 64° (ENE) 23:25:42 145.980
ESTCUBE 1 18 Oct 23:21:31 23:26:01 87° 77° (ENE) 23:30:31 437.505/2401.250
FO-29 18 Oct 23:25:27 23:29:43 18° 298° (WNW) 23:34:12 435.910
EO-79 18 Oct 23:25:53 23:27:29 12° 91° (E) 23:29:05 145.935-145.965
POLYITAN 1 18 Oct 23:29:41 23:31:46 13° 92° (E) 23:33:50 437.675
UNISAT 6 18 Oct 23:43:18 23:46:18 17° 294° (WNW) 23:49:15 437.425
PRISM 18 Oct 23:43:26 23:47:07 32° 289° (WNW) 23:50:48 437.425
BEESAT 2 18 Oct 23:45:35 23:47:27 13° 252° (WSW) 23:49:20 435.950
QB50P2 18 Oct 23:48:35 23:52:07 25° 96° (E) 23:55:38 145.880/145.840
NANOSAT C BR1 18 Oct 23:53:43 23:57:06 23° 95° (E) 00:00:27 145.865
TIGRISAT 18 Oct 23:59:19 00:01:28 13° 296° (WNW) 00:03:35 435.000
AIST 2D 19 Oct 00:02:26 00:05:53 69° 284° (WNW) 00:09:19 435.315
DUCHIFAT 1 19 Oct 00:05:16 00:08:52 27° 96° (E) 00:12:26 145.980
AO-85 19 Oct 00:08:26 00:11:08 15° 250° (WSW) 00:13:56 145.980
SPROUT 19 Oct 00:23:00 00:27:16 81° 260° (W) 00:31:34 437.525
DX 1 19 Oct 00:31:49 00:34:57 20° 67° (ENE) 00:38:07 434.975-435.025
Oscar 19 19 Oct 00:53:08 00:55:05 12° 91° (E) 00:57:02 437.125/150
VELOX 1 19 Oct 00:55:11 00:59:26 50° 260° (W) 01:03:43 145.980
UKube-1 19 Oct 00:58:56 01:02:25 25° 69° (ENE) 01:05:56 .
EO-79 19 Oct 00:59:22 01:03:30 51° 286° (WNW) 01:07:37 145.935-145.965
POLYITAN 1 19 Oct 01:03:40 01:07:45 45° 287° (WNW) 01:11:47 437.675
Gurwin Techsat 1B 19 Oct 01:11:03 01:13:29 13° 91° (E) 01:15:53 435.225
RS-15 19 Oct 01:13:34 01:25:52 89° 299° (WNW) 01:38:16 29.354- 29.394
QB50P2 19 Oct 01:24:20 01:27:47 25° 291° (WNW) 01:31:14 145.880/145.840
M-CUBED/EXP-1 PRIME 19 Oct 01:27:19 01:29:27 15° 101° (E) 01:31:38 437.505
50 SAT 19 Oct 01:28:59 01:32:12 60° 259° (W) 01:35:26 437.505
NANOSAT C BR1 19 Oct 01:29:10 01:32:44 27° 290° (WNW) 01:36:18 145.865
DUCHIFAT 1 19 Oct 01:41:02 01:44:22 23° 291° (WNW) 01:47:41 145.980
BEESAT 19 Oct 01:45:55 01:47:19 11° 61° (ENE) 01:48:42 436.000
BUGSAT 1 19 Oct 01:54:28 01:58:40 63° 286° (WNW) 02:02:48 437.445
DX 1 19 Oct 02:07:01 02:10:54 32° 262° (W) 02:14:48 434.975-435.025
Oscar 19 19 Oct 02:29:45 02:34:51 70° 286° (WNW) 02:39:56 437.125/150
UKube-1 19 Oct 02:34:46 02:38:20 25° 264° (W) 02:41:54 .
NO-84 19 Oct 02:42:23 02:46:06 29° 126° (SE) 02:49:51 435.350 FM
Gurwin Techsat 1B 19 Oct 02:48:34 02:53:52 69° 286° (WNW) 02:59:09 435.225
MOZHAYETS 4 19 Oct 02:48:45 02:53:15 54° 74° (ENE) 02:57:47
CUBESAT XI-V 19 Oct 02:58:08 03:00:37 14° 65° (ENE) 03:03:05 437.345
M-CUBED/EXP-1 PRIME 19 Oct 03:00:42 03:03:52 31° 292° (WNW) 03:07:14 437.505
ITAMSAT 1 19 Oct 03:01:19 03:03:30 12° 91° (E) 03:05:40 435.822/435.867
ITUPSAT 1 19 Oct 03:03:02 03:07:48 70° 75° (ENE) 03:12:36 437.325
AO-7 19 Oct 03:10:11 03:17:08 29° 97° (E) 03:24:03 .
BEESAT 19 Oct 03:19:37 03:24:23 77° 257° (WSW) 03:29:13 436.000
RS-15 19 Oct 03:29:45 03:40:13 31° 324° (NW) 03:50:38 29.354- 29.394
NO-84 19 Oct 04:19:26 04:23:27 37° 322° (NW) 04:27:24 435.350 FM
DOVE 4 19 Oct 04:25:24 04:26:48 11° 90° (E) 04:28:14 437.250
KKS-1 19 Oct 04:27:11 04:31:14 37° 71° (ENE) 04:35:20 437.445
MOZHAYETS 4 19 Oct 04:28:27 04:30:41 13° 269° (W) 04:32:56
CUBESAT XI-V 19 Oct 04:32:58 04:37:30 54° 260° (W) 04:42:01 437.345
ITAMSAT 1 19 Oct 04:38:11 04:43:25 70° 286° (WNW) 04:48:36 435.822/435.867
ITUPSAT 1 19 Oct 04:44:56 04:46:04 11° 269° (W) 04:47:12 437.325
AO-7 19 Oct 05:02:08 05:10:13 59° 293° (WNW) 05:18:18 .
STARS 19 Oct 05:04:09 05:08:10 37° 71° (ENE) 05:12:13 437.465
XW-2C 19 Oct 05:46:52 05:48:54 14° 93° (E) 05:50:56 145.795 - 145.815
RS-15 19 Oct 05:51:13 05:58:34 17° 360° (N) 06:05:46 29.354- 29.394
O/OREOS (USA 219) 19 Oct 05:51:16 05:54:30 18° 58° (ENE) 05:57:43 437.305
DOVE 4 19 Oct 05:59:52 06:04:51 77° 284° (WNW) 06:10:03 437.250
NO-84 19 Oct 06:00:59 06:01:51 11° 340° (NNW) 06:02:44 435.350 FM
KKS-1 19 Oct 06:04:51 06:07:53 18° 266° (W) 06:10:56 437.445
HO-68 19 Oct 06:26:19 06:30:46 17° 91° (E) 06:35:10 435.675
STRAND 1 19 Oct 06:27:01 06:31:18 28° 68° (ENE) 06:35:36 437.568
XW-2F 19 Oct 06:31:43 06:35:21 50° 99° (E) 06:38:58 145.980 - 146.000
KAITUO 1B 19 Oct 06:32:29 06:35:57 38° 98° (E) 06:39:24 145.475/437.950
LilacSat-2 19 Oct 06:33:50 06:37:36 65° 102° (ESE) 06:41:18 437.200
CUTE-I 19 Oct 06:36:59 06:42:11 48° 100° (E) 06:47:21 437.470
STARS 19 Oct 06:41:39 06:44:36 18° 266° (W) 06:47:35 437.465
XW-2D 19 Oct 06:42:54 06:46:39 83° 101° (ESE) 06:50:23 145.860 - 145.880
NUDT-PHONESAT 19 Oct 06:48:55 06:52:33 64° 101° (E) 06:56:09 437.300
CUBEBUG 2 19 Oct 06:51:21 06:52:27 11° 89° (E) 06:53:34 437.445
XW-2B 19 Oct 06:56:20 07:00:03 68° 285° (WNW) 07:03:45 145.730 - 145.750
AO-7 19 Oct 06:58:34 07:01:14 12° 313° (NW) 07:03:53 .
SO-50 19 Oct 07:17:06 07:21:34 73° 302° (WNW) 07:26:04 436.795
XW-2C 19 Oct 07:19:49 07:23:10 32° 288° (WNW) 07:26:30 145.795 - 145.815
O/OREOS (USA 219) 19 Oct 07:29:46 07:34:06 41° 255° (WSW) 07:38:23 437.305
UWE-3 19 Oct 07:30:41 07:33:36 17° 92° (E) 07:36:28 435.000/436.395/437.385
CUTE 1.7 + AOD 2 19 Oct 07:38:17 07:42:28 68° 100° (E) 07:46:38 437.475
JUGNU 19 Oct 07:40:44 07:42:58 12° 176° (S) 07:45:12 437.505
SEEDS 19 Oct 07:48:06 07:52:10 51° 99° (E) 07:56:13 437.485
FO-29 19 Oct 07:50:59 07:55:14 26° 65° (ENE) 07:59:42 435.910
STRAND 1 19 Oct 08:05:46 08:10:19 32° 263° (W) 08:14:55 437.568
RS-15 19 Oct 08:06:39 08:16:52 30° 35° (NE) 08:26:35 29.354- 29.394
KAITUO 1B 19 Oct 08:08:04 08:09:33 12° 293° (WNW) 08:11:02 145.475/437.950
HO-68 19 Oct 08:11:55 08:19:08 79° 288° (WNW) 08:26:19 435.675
PCSat 19 Oct 08:15:12 08:20:30 60° 113° (ESE) 08:25:51 145.827
AAUSAT CUBESAT 2 19 Oct 08:16:06 08:20:04 45° 99° (E) 08:24:02 437.432
YUBILEINY 19 Oct 08:16:21 08:22:40 23° 81° (E) 08:29:00 435.215
CUTE-I 19 Oct 08:17:57 08:21:50 21° 295° (WNW) 08:25:43 437.470
CUBEBUG 2 19 Oct 08:24:53 08:29:30 64° 285° (WNW) 08:33:57 437.445
AO-73 19 Oct 08:25:22 08:29:14 31° 96° (E) 08:33:01 145.935
XW-2A 19 Oct 08:43:09 08:46:21 44° 286° (WNW) 08:49:32 145.665 - 145.685
ZACube-1 19 Oct 08:46:16 08:50:38 64° 101° (E) 08:54:51 437.345
PRISM 19 Oct 08:58:49 08:59:21 10° 64° (ENE) 08:59:53 437.425
UNISAT 6 19 Oct 09:02:18 09:06:22 31° 70° (ENE) 09:10:29 437.425
UWE-3 19 Oct 09:06:00 09:10:13 39° 288° (WNW) 09:14:17 435.000/436.395/437.385
